Flag Weather past 2 weeks in Weimar, Thuringia, Germany

Now
37 °F

Partly cloudy.


Feels Like: 32 °F
Forecast: 29 / 39 °F
Wind: 7 mph from East

Location: Erfurt-Bindersleben

Current Time: Nov 25, 2014 at 11:13:06 PM

Latest Report: Nov 25, 2014 at 10:20 PM


Visibility: 4 mi

Pressure: 30.24 "Hg

Humidity: 100%

Dew point: 37 °F

Location of WeimarLocation

Historic Weather in Weimar — Graph

°F

Weimar temperature yesterday

Maximum temperature yesterday: 46 °F (at 12:20 AM)
Minimum temperature yesterday: 34 °F (at 10:20 PM)
Average temperature yesterday: 42 °F

Past Weeks' High & Low Weather Summary

 TemperatureHumidityPressure
High54 °F (Nov 14, 1:50 PM)100% (Nov 10, 9:20 PM)30.33 "Hg (Nov 10, 9:20 PM)
Low30 °F (Nov 23, 4:20 AM)71% (Nov 23, 11:20 PM)29.50 "Hg (Nov 16, 4:20 AM)
Average42 °F97%29.96 "Hg
* Reported Nov 10 9:20 PM — Nov 25 9:50 PM, Weimar, Weather by CustomWeather, © 2014

Note: Actual official high and low records may vary slightly from our data, if they occured in-between our weather recording intervals... More about our weather records

Advertising

Weimar weather history for previous 24 hours

 ConditionsComfort  
Time TempWeatherWind HumidityBarometerVisibility
9:50 PM
Nov 25
37 °FPartly cloudy.8 mph100%30.24 "Hg4 mi
9:20 PM37 °FFog.10 mph100%30.24 "Hg2 mi
8:50 PM37 °FFog.9 mph100%30.24 "Hg2 mi
8:20 PM37 °FPartly cloudy.9 mph100%30.24 "Hg2 mi
7:50 PM37 °FPartly cloudy.10 mph100%30.24 "Hg2 mi
7:20 PM37 °FPassing clouds.10 mph100%30.27 "Hg2 mi
6:50 PM36 °FFog.8 mph100%30.24 "Hg0 mi
6:20 PM36 °FFog.8 mph100%30.27 "Hg1 mi
5:50 PM36 °FFog.6 mph100%30.27 "Hg1 mi
5:20 PM36 °FFog.7 mph100%30.27 "Hg3 mi
4:50 PM36 °FFog.7 mph100%30.27 "Hg2 mi
4:20 PM36 °FLight fog.8 mph100%30.27 "Hg2 mi
3:50 PM36 °FLight fog.7 mph100%30.27 "Hg4 mi
3:20 PM36 °FSunny.7 mph100%30.27 "Hg10 mi
2:50 PM36 °FSunny.7 mph100%30.27 "Hg10 mi
2:20 PM37 °FSunny.9 mph100%30.27 "Hg10 mi
1:50 PM37 °FSunny.8 mph93%30.30 "Hg10 mi
1:20 PM37 °FSunny.7 mph93%30.30 "Hg10 mi
12:50 PM37 °FSunny.8 mph93%30.30 "Hg10 mi
12:20 PM37 °FLight fog.6 mph100%30.30 "Hg4 mi
11:50 AM36 °FChilly.6 mph100%30.30 "HgN/A
11:20 AM37 °FLight fog.3 mph87%30.30 "Hg4 mi
10:50 AM37 °FScattered clouds.2 mph93%30.33 "HgN/A
10:20 AM36 °FSunny.5 mph100%30.33 "Hg10 mi
9:50 AM34 °FSunny.7 mph100%30.33 "Hg10 mi
9:20 AM32 °FSunny.8 mph100%30.33 "Hg10 mi
8:50 AM32 °FSunny.7 mph100%30.30 "Hg10 mi
8:20 AM30 °FSunny.7 mph100%30.33 "Hg10 mi
7:50 AM30 °FSunny.9 mph100%30.30 "Hg10 mi
7:20 AM30 °FClear.8 mph100%30.33 "Hg10 mi
6:50 AM30 °FFog.8 mph100%30.30 "HgN/A
6:20 AM30 °FFog.7 mph100%30.33 "HgN/A
5:50 AM30 °FClear.8 mph100%30.33 "Hg10 mi
5:20 AM30 °FClear.8 mph100%30.33 "Hg10 mi
4:50 AM30 °FFog.7 mph100%30.30 "HgN/A
4:20 AM30 °FFog.7 mph100%30.30 "HgN/A
3:50 AM30 °FFog.7 mph100%30.30 "HgN/A
3:20 AM30 °FFog.8 mph100%30.30 "HgN/A
2:50 AM32 °FFog.7 mph100%30.33 "HgN/A
2:20 AM30 °FClear.8 mph100%30.33 "Hg10 mi
1:50 AM30 °FClear.9 mph100%30.33 "Hg10 mi
1:20 AM32 °FClear.8 mph100%30.33 "Hg10 mi
12:50 AM32 °FClear.7 mph100%30.33 "Hg10 mi
12:20 AM32 °FFog.8 mph100%30.33 "HgN/A
11:50 PM
Nov 24
34 °FFog.8 mph100%30.33 "HgN/A
11:20 PM34 °FFog.8 mph100%30.33 "HgN/A
Weather by CustomWeather, © 2014

See weather overviewHow to use our weather pages